#timestamp,LO_Frequency,Hit 
1505203215.3,286047000.7,N
1505203235.1,286046995.2,N
1505203255.8,286046998.1,N
1505203275.7,286046997.0,N
1505203295.5,286046998.0,N
1505203315.3,286046998.1,N
1505203335.2,286046998.1,N
1505203355.9,286046997.9,N
1505203375.7,286046995.0,N
1505203395.6,286046995.9,N
1505203415.4,286046994.8,N
1505203435.2,286046994.2,N
1505203455.1,286046997.4,N
1505203456.0,286046997.4,N
1505203475.8,286046999.1,N
1505203495.6,286047000.7,N
1505203515.5,286046999.1,N
1505203535.3,286046996.1,N
1505203555.1,286046999.6,N
1505203575.9,286046999.6,N
1505203595.7,286047002.3,N
1505203615.5,286047001.8,N
1505203635.3,286047000.2,N
1505203655.2,286047002.3,N
1505203675.0,286047000.9,N
1505203675.9,286047000.9,N
1505203695.7,286046996.9,N
1505203715.6,286046995.2,N
1505203735.4,286046997.9,N
1505203755.2,286046995.5,N
1505203775.1,286046995.0,N
1505203776.0,286046995.0,N
1505203795.8,286046995.7,N
1505203815.6,286046996.2,N
1505203835.5,286046993.4,N
1505203855.3,286046993.7,N
1505203875.1,286046991.0,P
1505203895.9,286046994.6,N
1505203915.7,286046991.2,P
1505203935.5,286046994.2,N
1505203955.4,286046994.3,N
1505203975.2,286046994.5,N
1505203995.0,286046994.2,N
1505203995.9,286046994.2,N
1505204015.8,286046993.5,P
1505204035.6,286047001.7,P
1505204055.4,286047002.6,N
1505204075.3,286046999.0,N
1505204095.1,286046998.8,N
1505204096.0,286046998.8,N
1505204115.8,286047002.8,N
1505204135.7,286047005.5,N
1505204155.5,286047003.3,N
1505204175.3,286047002.9,N
1505204195.2,286047007.3,N
1505204215.9,286047006.5,N
1505204235.7,286047004.1,N
1505204255.6,286047006.4,N
1505204275.4,286047006.8,N
1505204295.2,286047005.0,N
1505204315.0,286047007.0,N
1505204315.9,286047007.0,N
1505204335.8,286047007.8,N
1505204355.6,286047007.2,N
1505204375.4,286047005.7,N
1505204395.3,286047003.0,N
1505204415.1,286047004.3,N
1505204435.8,286047005.2,N
1505204455.7,286047003.0,N
1505204475.5,286047005.8,N
1505204495.3,286047003.3,N
1505204515.2,286046998.8,N
1505204535.0,286046998.4,N
1505204535.9,286046998.4,N
1505204555.7,286046999.8,N
1505204575.6,286046998.4,N
1505204595.9,286046996.6,N
1505204615.7,286047001.2,N
1505204635.5,286046998.8,N
1505204655.4,286046999.3,N
1505204675.2,286047000.6,N
1505204695.0,286047001.6,N
1505204695.9,286047001.6,N
1505204715.8,286047001.6,N
1505204735.6,286047003.1,N
1505204755.4,286047000.9,N
1505204775.3,286046999.4,N
1505204795.1,286046998.7,N
1505204796.0,286046998.7,N
1505204815.8,286047000.7,N
1505204835.7,286047002.5,N
1505204855.5,286047004.9,N
1505204875.3,286047009.0,P
1505204895.2,286047010.4,N
1505204915.9,286047003.0,N
1505204935.7,286047004.1,N
1505204955.5,286047004.4,N
1505204975.4,286047004.0,N
1505204995.2,286047002.5,N
1505205015.0,286047001.5,N
1505205015.9,286047001.5,N
1505205035.8,286047001.8,N
1505205055.6,286047004.2,N
1505205075.4,286047004.3,N
1505205095.3,286047002.7,N
1505205115.1,286046998.5,N
1505205116.0,286046998.5,N
1505205135.8,286047001.7,N
1505205155.7,286047000.2,N
1505205175.5,286047002.8,N
1505205195.3,286047002.3,N
1505205215.2,286046999.0,N
1505205235.9,286046997.0,N
1505205255.7,286046995.5,N
1505205275.6,286046997.7,N
1505205295.4,286047000.5,N
1505205315.2,286046998.9,N
1505205335.0,286046997.7,N
1505205335.9,286046997.7,N
1505205355.8,286046996.7,N
1505205375.6,286046997.5,N
1505205395.4,286046999.0,N
1505205415.3,286047002.8,N
1505205435.1,286047001.6,N
1505205455.8,286047002.7,N
1505205475.7,286047000.1,N
1505205495.5,286047003.1,N
1505205515.3,286047001.6,N
1505205535.2,286047000.4,N
1505205555.9,286047000.7,N
1505205575.7,286047002.4,N
1505205595.6,286047001.1,N
1505205615.4,286046998.7,N
1505205635.2,286047001.1,N
1505205655.0,286046998.3,N
1505205656.0,286046998.3,N
1505205675.8,286046999.1,N
1505205695.6,286047004.4,N
1505205715.4,286047005.2,N
1505205735.3,286047004.4,N
1505205755.1,286047001.6,N
1505205775.8,286047000.7,N
1505205795.7,286047000.8,N
1505205815.5,286047002.0,N
1505205835.3,286047000.2,N
1505205855.2,286047001.0,N
1505205875.9,286047004.2,N
1505205895.7,286046999.4,N
1505205915.6,286046998.2,N
1505205935.4,286046998.3,N
1505205955.2,286046995.3,N
1505205975.1,286046997.0,N
1505205976.0,286046997.0,N
1505205995.8,286046998.5,N
1505206015.6,286047004.0,N
1505206035.5,286047000.5,N
1505206055.3,286047001.0,N
1505206075.1,286046996.8,N
1505206095.8,286046999.6,N
1505206115.7,286046998.2,N
1505206135.5,286046998.6,N
1505206155.3,286046997.1,N
1505206175.2,286047001.9,N
1505206195.9,286047006.7,N
1505206215.7,286047008.7,P
1505206235.6,286047007.3,N
1505206255.4,286047004.9,N
1505206275.2,286047009.0,N
1505206295.1,286047008.7,N
1505206296.0,286047008.7,N
1505206315.8,286047006.5,N
1505206335.6,286047006.0,N
1505206355.5,286047004.9,N
1505206375.3,286047005.9,N
1505206395.1,286047002.8,N
1505206415.9,286047003.2,N
1505206435.7,286047008.6,P
1505206455.5,286046998.4,N
1505206475.4,286046999.6,N
1505206495.2,286046996.7,N
1505206515.0,286047000.9,N
1505206515.9,286047000.9,N
1505206535.8,286046999.7,N
1505206555.6,286047002.4,N
1505206575.4,286047002.8,N
1505206595.3,286047002.5,N
1505206615.1,286047000.6,N
1505206616.0,286047000.6,N
1505206635.8,286046999.5,N
1505206655.7,286046995.9,N
1505206675.5,286046994.5,N
1505206695.3,286046996.0,N
1505206715.1,286046997.4,N
1505206735.9,286046999.3,N
1505206755.7,286046993.6,N
1505206775.5,286046991.9,N
1505206795.4,286046993.4,N
